Year,Month,Day,Hour,Minute,Value (Times are PST for windspeed in km/hr)
2007,05,06,00,00,0.40
2007,05,06,00,01,0.00
2007,05,06,00,02,0.00
2007,05,06,00,03,1.00
2007,05,06,00,04,1.30
2007,05,06,00,05,1.30
2007,05,06,00,06,1.80
2007,05,06,00,07,2.40
2007,05,06,00,08,1.60
2007,05,06,00,09,1.60
2007,05,06,00,10,0.80
2007,05,06,00,11,1.30
2007,05,06,00,12,1.70
2007,05,06,00,13,1.20
2007,05,06,00,14,0.70
2007,05,06,00,15,0.60
2007,05,06,00,16,0.20
2007,05,06,00,17,0.20
2007,05,06,00,18,0.00
2007,05,06,00,19,0.30
2007,05,06,00,20,2.00
2007,05,06,00,21,2.00
2007,05,06,00,22,1.20
2007,05,06,00,23,3.80
2007,05,06,00,24,2.70
2007,05,06,00,25,3.10
2007,05,06,00,26,3.20
2007,05,06,00,27,1.30
2007,05,06,00,28,0.00
2007,05,06,00,29,0.50
2007,05,06,00,30,1.20
2007,05,06,00,31,0.20
2007,05,06,00,32,0.10
2007,05,06,00,33,1.80
2007,05,06,00,34,1.50
2007,05,06,00,35,0.80
2007,05,06,00,36,0.30
2007,05,06,00,37,1.20
2007,05,06,00,38,1.30
2007,05,06,00,39,1.30
2007,05,06,00,40,1.90
2007,05,06,00,41,2.20
2007,05,06,00,42,0.50
2007,05,06,00,43,0.30
2007,05,06,00,44,0.00
2007,05,06,00,45,0.20
2007,05,06,00,46,1.20
2007,05,06,00,47,0.60
2007,05,06,00,48,0.50
2007,05,06,00,49,0.10
2007,05,06,00,50,0.00
2007,05,06,00,51,0.00
2007,05,06,00,52,0.10
2007,05,06,00,53,0.00
2007,05,06,00,54,0.00
2007,05,06,00,55,0.00
2007,05,06,00,56,0.00
2007,05,06,00,57,0.00
2007,05,06,00,58,0.00
2007,05,06,00,59,0.20
2007,05,06,01,00,0.00
2007,05,06,01,01,0.40
2007,05,06,01,02,0.70
2007,05,06,01,03,1.90
2007,05,06,01,04,1.60
2007,05,06,01,05,1.40
2007,05,06,01,06,2.50
2007,05,06,01,07,2.30
2007,05,06,01,08,2.20
2007,05,06,01,09,2.30
2007,05,06,01,10,1.60
2007,05,06,01,11,1.90
2007,05,06,01,12,0.20
2007,05,06,01,13,1.70
2007,05,06,01,14,1.20
2007,05,06,01,15,1.40
2007,05,06,01,16,1.90
2007,05,06,01,17,1.80
2007,05,06,01,18,1.90
2007,05,06,01,19,2.70
2007,05,06,01,20,0.20
2007,05,06,01,21,3.10
2007,05,06,01,22,2.90
2007,05,06,01,23,3.50
2007,05,06,01,24,3.60
2007,05,06,01,25,4.50
2007,05,06,01,26,4.10
2007,05,06,01,27,4.70
2007,05,06,01,28,3.60
2007,05,06,01,29,2.60
2007,05,06,01,30,3.10
2007,05,06,01,31,2.60
2007,05,06,01,32,2.10
2007,05,06,01,33,1.40
2007,05,06,01,34,2.60
2007,05,06,01,35,2.00
2007,05,06,01,36,4.00
2007,05,06,01,37,2.70
2007,05,06,01,38,3.60
2007,05,06,01,39,1.90
2007,05,06,01,40,3.10
2007,05,06,01,41,3.20
2007,05,06,01,42,2.30
2007,05,06,01,43,2.10
2007,05,06,01,44,1.10
2007,05,06,01,45,0.70
2007,05,06,01,46,2.50
2007,05,06,01,47,3.40
2007,05,06,01,48,2.50
2007,05,06,01,49,2.80
2007,05,06,01,50,3.00
2007,05,06,01,51,1.20
2007,05,06,01,52,4.10
2007,05,06,01,53,2.60
2007,05,06,01,54,2.10
2007,05,06,01,55,3.90
2007,05,06,01,56,2.70
2007,05,06,01,57,1.80
2007,05,06,01,58,1.80
2007,05,06,01,59,1.70
2007,05,06,02,00,2.00
2007,05,06,02,01,1.90
2007,05,06,02,02,1.90
2007,05,06,02,03,2.30
2007,05,06,02,04,1.70
2007,05,06,02,05,1.40
2007,05,06,02,06,1.40
2007,05,06,02,07,0.70
2007,05,06,02,08,1.40
2007,05,06,02,09,1.30
2007,05,06,02,10,2.10
2007,05,06,02,11,0.80
2007,05,06,02,12,1.90
2007,05,06,02,13,2.00
2007,05,06,02,14,2.00
2007,05,06,02,15,1.10
2007,05,06,02,16,1.80
2007,05,06,02,17,0.70
2007,05,06,02,18,1.50
2007,05,06,02,19,2.20
2007,05,06,02,20,2.60
2007,05,06,02,21,2.80
2007,05,06,02,22,2.10
2007,05,06,02,23,0.20
2007,05,06,02,24,0.20
2007,05,06,02,25,1.50
2007,05,06,02,26,1.90
2007,05,06,02,27,2.50
2007,05,06,02,28,2.50
2007,05,06,02,29,2.70
2007,05,06,02,30,2.50
2007,05,06,02,31,3.10
2007,05,06,02,32,2.20
2007,05,06,02,33,2.10
2007,05,06,02,34,3.00
2007,05,06,02,35,2.30
2007,05,06,02,36,2.00
2007,05,06,02,37,1.90
2007,05,06,02,38,3.50
2007,05,06,02,39,2.60
2007,05,06,02,40,3.30
2007,05,06,02,41,3.10
2007,05,06,02,42,1.50
2007,05,06,02,43,3.60
2007,05,06,02,44,4.10
2007,05,06,02,45,4.40
2007,05,06,02,46,3.70
2007,05,06,02,47,4.10
2007,05,06,02,48,3.40
2007,05,06,02,49,2.70
2007,05,06,02,50,4.40
2007,05,06,02,51,4.00
2007,05,06,02,52,3.40
2007,05,06,02,53,2.50
2007,05,06,02,54,3.50
2007,05,06,02,55,3.40
2007,05,06,02,56,1.40
2007,05,06,02,57,1.20
2007,05,06,02,58,3.00
2007,05,06,02,59,1.80
2007,05,06,03,00,3.10
2007,05,06,03,01,2.00
2007,05,06,03,02,2.60
2007,05,06,03,03,3.40
2007,05,06,03,04,2.60
2007,05,06,03,05,2.30
2007,05,06,03,06,3.80
2007,05,06,03,07,3.50
2007,05,06,03,08,4.70
2007,05,06,03,09,1.20
2007,05,06,03,10,3.10
2007,05,06,03,11,3.70
2007,05,06,03,12,3.00
2007,05,06,03,13,4.00
2007,05,06,03,14,4.10
2007,05,06,03,15,4.30
2007,05,06,03,16,5.10
2007,05,06,03,17,5.80
2007,05,06,03,18,4.60
2007,05,06,03,19,5.30
2007,05,06,03,20,5.40
2007,05,06,03,21,5.30
2007,05,06,03,22,4.40
2007,05,06,03,23,5.10
2007,05,06,03,24,5.70
2007,05,06,03,25,6.80
2007,05,06,03,26,8.00
2007,05,06,03,27,4.50
2007,05,06,03,28,4.80
2007,05,06,03,29,5.70
2007,05,06,03,30,4.30
2007,05,06,03,31,6.70
2007,05,06,03,32,6.40
2007,05,06,03,33,4.20
2007,05,06,03,34,5.60
2007,05,06,03,35,7.10
2007,05,06,03,36,7.20
2007,05,06,03,37,7.20
2007,05,06,03,38,5.50
2007,05,06,03,39,4.80
2007,05,06,03,40,5.60
2007,05,06,03,41,7.00
2007,05,06,03,42,7.40
2007,05,06,03,43,5.70
2007,05,06,03,44,5.20
2007,05,06,03,45,4.80
2007,05,06,03,46,4.70
2007,05,06,03,47,3.90
2007,05,06,03,48,5.40
2007,05,06,03,49,4.50
2007,05,06,03,50,5.30
2007,05,06,03,51,6.90
2007,05,06,03,52,7.00
2007,05,06,03,53,4.70
2007,05,06,03,54,4.10
2007,05,06,03,55,3.10
2007,05,06,03,56,3.10
2007,05,06,03,57,4.00
2007,05,06,03,58,4.10
2007,05,06,03,59,3.80
2007,05,06,04,00,3.80
2007,05,06,04,01,1.20
2007,05,06,04,02,3.10
2007,05,06,04,03,4.60
2007,05,06,04,04,5.00
2007,05,06,04,05,4.00
2007,05,06,04,06,2.30
2007,05,06,04,07,4.70
2007,05,06,04,08,5.00
2007,05,06,04,09,2.50
2007,05,06,04,10,4.30
2007,05,06,04,11,4.50
2007,05,06,04,12,6.00
2007,05,06,04,13,6.70
2007,05,06,04,14,4.10
2007,05,06,04,15,5.90
2007,05,06,04,16,5.40
2007,05,06,04,17,5.40
2007,05,06,04,18,6.90
2007,05,06,04,19,6.80
2007,05,06,04,20,5.30
2007,05,06,04,21,3.10
2007,05,06,04,22,5.10
2007,05,06,04,23,6.80
2007,05,06,04,24,4.70
2007,05,06,04,25,3.80
2007,05,06,04,26,4.40
2007,05,06,04,27,3.70
2007,05,06,04,28,3.10
2007,05,06,04,29,4.70
2007,05,06,04,30,5.10
2007,05,06,04,31,4.30
2007,05,06,04,32,3.50
2007,05,06,04,33,5.20
2007,05,06,04,34,4.60
2007,05,06,04,35,4.10
2007,05,06,04,36,3.10
2007,05,06,04,37,4.50
2007,05,06,04,38,5.20
2007,05,06,04,39,3.80
2007,05,06,04,40,2.90
2007,05,06,04,41,3.90
2007,05,06,04,42,1.90
2007,05,06,04,43,2.70
2007,05,06,04,44,5.00
2007,05,06,04,45,2.90
2007,05,06,04,46,3.70
2007,05,06,04,47,2.00
2007,05,06,04,48,4.80
2007,05,06,04,49,5.00
2007,05,06,04,50,5.00
2007,05,06,04,51,4.50
2007,05,06,04,52,2.70
2007,05,06,04,53,3.40
2007,05,06,04,54,5.10
2007,05,06,04,55,6.00
2007,05,06,04,56,6.10
2007,05,06,04,57,5.50
2007,05,06,04,58,6.90
2007,05,06,04,59,6.20
2007,05,06,05,00,5.70
2007,05,06,05,01,5.70
2007,05,06,05,02,6.70
2007,05,06,05,03,6.30
2007,05,06,05,04,5.10
2007,05,06,05,05,7.60
2007,05,06,05,06,6.80
2007,05,06,05,07,5.70
2007,05,06,05,08,7.70
2007,05,06,05,09,8.10
2007,05,06,05,10,6.80
2007,05,06,05,11,8.10
2007,05,06,05,12,7.10
2007,05,06,05,13,7.70
2007,05,06,05,14,5.70
2007,05,06,05,15,6.90
2007,05,06,05,16,7.50
2007,05,06,05,17,7.90
2007,05,06,05,18,6.40
2007,05,06,05,19,4.30
2007,05,06,05,20,10.10
2007,05,06,05,21,6.10
2007,05,06,05,22,3.40
2007,05,06,05,23,4.20
2007,05,06,05,24,6.20
2007,05,06,05,25,6.20
2007,05,06,05,26,6.80
2007,05,06,05,27,4.50
2007,05,06,05,28,8.40
2007,05,06,05,29,5.60
2007,05,06,05,30,4.80
2007,05,06,05,31,4.70
2007,05,06,05,32,6.30
2007,05,06,05,33,7.20
2007,05,06,05,34,6.90
2007,05,06,05,35,5.40
2007,05,06,05,36,3.60
2007,05,06,05,37,3.40
2007,05,06,05,38,5.30
2007,05,06,05,39,6.20
2007,05,06,05,40,5.10
2007,05,06,05,41,5.40
2007,05,06,05,42,5.60
2007,05,06,05,43,4.40
2007,05,06,05,44,4.20
2007,05,06,05,45,4.50
2007,05,06,05,46,2.50
2007,05,06,05,47,4.60
2007,05,06,05,48,3.00
2007,05,06,05,49,5.80
2007,05,06,05,50,4.40
2007,05,06,05,51,3.70
2007,05,06,05,52,2.50
2007,05,06,05,53,5.70
2007,05,06,05,54,5.10
2007,05,06,05,55,3.40
2007,05,06,05,56,3.10
2007,05,06,05,57,3.00
2007,05,06,05,58,1.20
2007,05,06,05,59,3.20
2007,05,06,06,00,3.60
2007,05,06,06,01,3.20
2007,05,06,06,02,2.20
2007,05,06,06,03,3.90
2007,05,06,06,04,2.80
2007,05,06,06,05,4.20
2007,05,06,06,06,3.80
2007,05,06,06,07,3.00
2007,05,06,06,08,3.70
2007,05,06,06,09,3.80
2007,05,06,06,10,5.30
2007,05,06,06,11,3.50
2007,05,06,06,12,4.00
2007,05,06,06,13,4.30
2007,05,06,06,14,4.70
2007,05,06,06,15,3.10
2007,05,06,06,16,2.60
2007,05,06,06,17,1.80
2007,05,06,06,18,2.20
2007,05,06,06,19,2.20
2007,05,06,06,20,2.80
2007,05,06,06,21,0.80
2007,05,06,06,22,3.00
2007,05,06,06,23,3.00
2007,05,06,06,24,1.10
2007,05,06,06,25,4.10
2007,05,06,06,26,4.70
2007,05,06,06,27,5.80
2007,05,06,06,28,5.60
2007,05,06,06,29,4.30
2007,05,06,06,30,4.50
2007,05,06,06,31,4.60
2007,05,06,06,32,3.30
2007,05,06,06,33,2.80
2007,05,06,06,34,2.40
2007,05,06,06,35,4.10
2007,05,06,06,36,3.80
2007,05,06,06,37,4.60
2007,05,06,06,38,4.50
2007,05,06,06,39,3.30
2007,05,06,06,40,4.30
2007,05,06,06,41,5.60
2007,05,06,06,42,4.50
2007,05,06,06,43,4.00
2007,05,06,06,44,2.90
2007,05,06,06,45,3.20
2007,05,06,06,46,2.50
2007,05,06,06,47,3.10
2007,05,06,06,48,3.00
2007,05,06,06,49,1.40
2007,05,06,06,50,1.50
2007,05,06,06,51,2.20
2007,05,06,06,52,1.70
2007,05,06,06,53,1.30
2007,05,06,06,54,1.90
2007,05,06,06,55,0.90
2007,05,06,06,56,0.50
2007,05,06,06,57,2.20
2007,05,06,06,58,2.60
2007,05,06,06,59,3.10
2007,05,06,07,00,3.50
2007,05,06,07,01,3.90
2007,05,06,07,02,2.20
2007,05,06,07,03,2.80
2007,05,06,07,04,4.20
2007,05,06,07,05,2.30
2007,05,06,07,06,4.70
2007,05,06,07,07,4.70
2007,05,06,07,08,4.40
2007,05,06,07,09,4.70
2007,05,06,07,10,8.40
2007,05,06,07,11,6.10
2007,05,06,07,12,5.40
2007,05,06,07,13,7.20
2007,05,06,07,14,4.90
2007,05,06,07,15,4.30
2007,05,06,07,16,6.50
2007,05,06,07,17,3.60
2007,05,06,07,18,3.60
2007,05,06,07,19,4.70
2007,05,06,07,20,5.10
2007,05,06,07,21,6.50
2007,05,06,07,22,8.30
2007,05,06,07,23,5.20
2007,05,06,07,24,3.80
2007,05,06,07,25,4.00
2007,05,06,07,26,4.20
2007,05,06,07,27,4.80
2007,05,06,07,28,6.90
2007,05,06,07,29,7.00
2007,05,06,07,30,4.40
2007,05,06,07,31,4.80
2007,05,06,07,32,5.80
2007,05,06,07,33,4.50
2007,05,06,07,34,2.50
2007,05,06,07,35,5.00
2007,05,06,07,36,5.80
2007,05,06,07,37,6.90
2007,05,06,07,38,4.30
2007,05,06,07,39,6.10
2007,05,06,07,40,4.30
2007,05,06,07,41,3.80
2007,05,06,07,42,4.80
2007,05,06,07,43,2.00
2007,05,06,07,44,4.60
2007,05,06,07,45,5.50
2007,05,06,07,46,5.20
2007,05,06,07,47,4.30
2007,05,06,07,48,3.50
2007,05,06,07,49,3.40
2007,05,06,07,50,5.30
2007,05,06,07,51,3.60
2007,05,06,07,52,2.20
2007,05,06,07,53,4.40
2007,05,06,07,54,8.50
2007,05,06,07,55,5.20
2007,05,06,07,56,4.30
2007,05,06,07,57,7.40
2007,05,06,07,58,7.80
2007,05,06,07,59,5.50
2007,05,06,08,00,6.00
2007,05,06,08,01,4.90
2007,05,06,08,02,4.60
2007,05,06,08,03,4.10
2007,05,06,08,04,6.10
2007,05,06,08,05,7.70
2007,05,06,08,06,7.00
2007,05,06,08,07,5.50
2007,05,06,08,08,5.70
2007,05,06,08,09,5.20
2007,05,06,08,10,5.00
2007,05,06,08,11,4.70
2007,05,06,08,12,4.40
2007,05,06,08,13,6.10
2007,05,06,08,14,7.10
2007,05,06,08,15,4.70
2007,05,06,08,16,5.20
2007,05,06,08,17,5.80
2007,05,06,08,18,5.10
2007,05,06,08,19,5.60
2007,05,06,08,20,7.60
2007,05,06,08,21,9.90
2007,05,06,08,22,6.10
2007,05,06,08,23,6.40
2007,05,06,08,24,6.30
2007,05,06,08,25,6.80
2007,05,06,08,26,6.70
2007,05,06,08,27,7.80
2007,05,06,08,28,6.60
2007,05,06,08,29,7.00
2007,05,06,08,30,5.10
2007,05,06,08,31,6.10
2007,05,06,08,32,4.10
2007,05,06,08,33,2.60
2007,05,06,08,34,7.10
2007,05,06,08,35,7.00
2007,05,06,08,36,5.60
2007,05,06,08,37,6.00
2007,05,06,08,38,6.40
2007,05,06,08,39,5.80
2007,05,06,08,40,9.60
2007,05,06,08,41,5.70
2007,05,06,08,42,6.00
2007,05,06,08,43,7.40
2007,05,06,08,44,7.90
2007,05,06,08,45,3.70
2007,05,06,08,46,3.90
2007,05,06,08,47,3.10
2007,05,06,08,48,6.00
2007,05,06,08,49,5.60
2007,05,06,08,50,7.00
2007,05,06,08,51,6.60
2007,05,06,08,52,7.40
2007,05,06,08,53,6.30
2007,05,06,08,54,6.90
2007,05,06,08,55,2.70
2007,05,06,08,56,4.10
2007,05,06,08,57,8.00
2007,05,06,08,58,8.00
2007,05,06,08,59,4.90
2007,05,06,09,00,4.60
2007,05,06,09,01,8.50
2007,05,06,09,02,9.90
2007,05,06,09,03,7.80
2007,05,06,09,04,11.60
2007,05,06,09,05,7.50
2007,05,06,09,06,4.70
2007,05,06,09,07,4.70
2007,05,06,09,08,4.20
2007,05,06,09,09,5.10
2007,05,06,09,10,6.10
2007,05,06,09,11,9.00
2007,05,06,09,12,6.60
2007,05,06,09,13,6.40
2007,05,06,09,14,12.40
2007,05,06,09,15,8.40
2007,05,06,09,16,9.30
2007,05,06,09,17,9.40
2007,05,06,09,18,9.30
2007,05,06,09,19,8.50
2007,05,06,09,20,6.40
2007,05,06,09,21,5.30
2007,05,06,09,22,5.40
2007,05,06,09,23,6.40
2007,05,06,09,24,4.00
2007,05,06,09,25,7.20
2007,05,06,09,26,6.40
2007,05,06,09,27,3.10
2007,05,06,09,28,4.60
2007,05,06,09,29,9.80
2007,05,06,09,30,7.70
2007,05,06,09,31,8.30
2007,05,06,09,32,5.70
2007,05,06,09,33,9.70
2007,05,06,09,34,7.20
2007,05,06,09,35,3.80
2007,05,06,09,36,5.00
2007,05,06,09,37,5.70
2007,05,06,09,38,7.50
2007,05,06,09,39,9.20
2007,05,06,09,40,6.00
2007,05,06,09,41,6.20
2007,05,06,09,42,7.10
2007,05,06,09,43,5.10
2007,05,06,09,44,8.00
2007,05,06,09,45,6.50
2007,05,06,09,46,5.60
2007,05,06,09,47,7.90
2007,05,06,09,48,10.00
2007,05,06,09,49,5.80
2007,05,06,09,50,5.40
2007,05,06,09,51,6.40
2007,05,06,09,52,6.40
2007,05,06,09,53,5.80
2007,05,06,09,54,5.60
2007,05,06,09,55,6.30
2007,05,06,09,56,4.50
2007,05,06,09,57,6.70
2007,05,06,09,58,7.40
2007,05,06,09,59,6.00
2007,05,06,10,00,7.80
2007,05,06,10,01,6.30
2007,05,06,10,02,7.80
2007,05,06,10,03,9.40
2007,05,06,10,04,9.50
2007,05,06,10,05,8.30
2007,05,06,10,06,12.20
2007,05,06,10,07,8.20
2007,05,06,10,08,5.20
2007,05,06,10,09,7.70
2007,05,06,10,10,6.00
2007,05,06,10,11,6.70
2007,05,06,10,12,9.80
2007,05,06,10,13,7.90
2007,05,06,10,14,6.70
2007,05,06,10,15,5.40
2007,05,06,10,16,4.40
2007,05,06,10,17,6.00
2007,05,06,10,18,6.50
2007,05,06,10,19,7.30
2007,05,06,10,20,6.40
2007,05,06,10,21,9.30
2007,05,06,10,22,12.50
2007,05,06,10,23,8.50
2007,05,06,10,24,7.50
2007,05,06,10,25,5.70
2007,05,06,10,26,6.30
2007,05,06,10,27,13.10
2007,05,06,10,28,8.60
2007,05,06,10,29,7.00
2007,05,06,10,30,12.40
2007,05,06,10,31,9.10
2007,05,06,10,32,9.10
2007,05,06,10,33,8.90
2007,05,06,10,34,12.90
2007,05,06,10,35,13.30
2007,05,06,10,36,10.80
2007,05,06,10,37,11.70
2007,05,06,10,38,11.30
2007,05,06,10,39,6.70
2007,05,06,10,40,4.80
2007,05,06,10,41,6.20
2007,05,06,10,42,6.40
2007,05,06,10,43,8.80
2007,05,06,10,44,9.40
2007,05,06,10,45,6.10
2007,05,06,10,46,7.20
2007,05,06,10,47,9.50
2007,05,06,10,48,10.00
2007,05,06,10,49,11.60
2007,05,06,10,50,10.90
2007,05,06,10,51,11.10
2007,05,06,10,52,7.90
2007,05,06,10,53,8.60
2007,05,06,10,54,8.20
2007,05,06,10,55,6.30
2007,05,06,10,56,8.10
2007,05,06,10,57,9.50
2007,05,06,10,58,5.50
2007,05,06,10,59,6.90
2007,05,06,11,00,7.50
2007,05,06,11,01,6.40
2007,05,06,11,02,12.60
2007,05,06,11,03,8.80
2007,05,06,11,04,10.20
2007,05,06,11,05,15.00
2007,05,06,11,06,11.70
2007,05,06,11,07,9.40
2007,05,06,11,08,11.40
2007,05,06,11,09,9.70
2007,05,06,11,10,3.70
2007,05,06,11,11,6.40
2007,05,06,11,12,7.00
2007,05,06,11,13,9.60
2007,05,06,11,14,11.30
2007,05,06,11,15,10.80
2007,05,06,11,16,9.70
2007,05,06,11,17,8.10
2007,05,06,11,18,10.70
2007,05,06,11,19,6.40
2007,05,06,11,20,4.80
2007,05,06,11,21,5.60
2007,05,06,11,22,8.80
2007,05,06,11,23,9.50
2007,05,06,11,24,6.90
2007,05,06,11,25,8.30
2007,05,06,11,26,6.80
2007,05,06,11,27,8.20
2007,05,06,11,28,11.70
2007,05,06,11,29,14.80
2007,05,06,11,30,6.80
2007,05,06,11,31,6.30
2007,05,06,11,32,13.10
2007,05,06,11,33,9.60
2007,05,06,11,34,15.00
2007,05,06,11,35,9.40
2007,05,06,11,36,6.10
2007,05,06,11,37,10.60
2007,05,06,11,38,9.30
2007,05,06,11,39,8.00
2007,05,06,11,40,8.20
2007,05,06,11,41,6.20
2007,05,06,11,42,15.40
2007,05,06,11,43,11.00
2007,05,06,11,44,8.30
2007,05,06,11,45,8.20
2007,05,06,11,46,9.70
2007,05,06,11,47,12.40
2007,05,06,11,48,10.00
2007,05,06,11,49,10.20
2007,05,06,11,50,7.80
2007,05,06,11,51,12.90
2007,05,06,11,52,11.00
2007,05,06,11,53,8.40
2007,05,06,11,54,14.50
2007,05,06,11,55,11.00
2007,05,06,11,56,9.60
2007,05,06,11,57,7.00
2007,05,06,11,58,10.30
2007,05,06,11,59,13.60
2007,05,06,12,00,15.40
2007,05,06,12,01,12.00
2007,05,06,12,02,11.70
2007,05,06,12,03,6.90
2007,05,06,12,04,7.90
2007,05,06,12,05,6.00
2007,05,06,12,06,10.10
2007,05,06,12,07,6.80
2007,05,06,12,08,13.80
2007,05,06,12,09,13.00
2007,05,06,12,10,8.60
2007,05,06,12,11,13.80
2007,05,06,12,12,8.50
2007,05,06,12,13,10.00
2007,05,06,12,14,14.20
2007,05,06,12,15,10.70
2007,05,06,12,16,12.00
2007,05,06,12,17,12.40
2007,05,06,12,18,9.60
2007,05,06,12,19,6.80
2007,05,06,12,20,9.60
2007,05,06,12,21,15.40
2007,05,06,12,22,13.40
2007,05,06,12,23,12.50
2007,05,06,12,24,12.70
2007,05,06,12,25,11.50
2007,05,06,12,26,10.10
2007,05,06,12,27,12.30
2007,05,06,12,28,10.50
2007,05,06,12,29,11.00
2007,05,06,12,30,8.90
2007,05,06,12,31,10.90
2007,05,06,12,32,9.70
2007,05,06,12,33,8.90
2007,05,06,12,34,7.90
2007,05,06,12,35,12.20
2007,05,06,12,36,10.30
2007,05,06,12,37,9.30
2007,05,06,12,38,7.60
2007,05,06,12,39,9.30
2007,05,06,12,40,12.60
2007,05,06,12,41,8.30
2007,05,06,12,42,11.00
2007,05,06,12,43,14.90
2007,05,06,12,44,12.20
2007,05,06,12,45,13.60
2007,05,06,12,46,11.60
2007,05,06,12,47,8.80
2007,05,06,12,48,14.50
2007,05,06,12,49,14.10
2007,05,06,12,50,14.20
2007,05,06,12,51,10.50
2007,05,06,12,52,13.10
2007,05,06,12,53,17.40
2007,05,06,12,54,14.60
2007,05,06,12,55,12.80
2007,05,06,12,56,10.90
2007,05,06,12,57,15.10
2007,05,06,12,58,14.10
2007,05,06,12,59,14.90
2007,05,06,13,00,11.30
2007,05,06,13,01,15.40
2007,05,06,13,02,14.60
2007,05,06,13,03,13.30
2007,05,06,13,04,9.10
2007,05,06,13,05,10.00
2007,05,06,13,06,15.40
2007,05,06,13,07,16.60
2007,05,06,13,08,13.70
2007,05,06,13,09,19.60
2007,05,06,13,10,14.30
2007,05,06,13,11,12.10
2007,05,06,13,12,10.30
2007,05,06,13,13,12.20
2007,05,06,13,14,9.30
2007,05,06,13,15,11.00
2007,05,06,13,16,13.00
2007,05,06,13,17,10.20
2007,05,06,13,18,13.40
2007,05,06,13,19,12.50
2007,05,06,13,20,10.70
2007,05,06,13,21,16.70
2007,05,06,13,22,9.50
2007,05,06,13,23,10.20
2007,05,06,13,24,12.10
2007,05,06,13,25,12.00
2007,05,06,13,26,8.70
2007,05,06,13,27,6.40
2007,05,06,13,28,4.20
2007,05,06,13,29,5.40
2007,05,06,13,30,8.80
2007,05,06,13,31,10.00
2007,05,06,13,32,11.30
2007,05,06,13,33,10.80
2007,05,06,13,34,7.90
2007,05,06,13,35,5.80
2007,05,06,13,36,6.90
2007,05,06,13,37,6.00
2007,05,06,13,38,8.10
2007,05,06,13,39,8.30
2007,05,06,13,40,7.70
2007,05,06,13,41,9.60
2007,05,06,13,42,13.40
2007,05,06,13,43,12.10
2007,05,06,13,44,8.00
2007,05,06,13,45,13.10
2007,05,06,13,46,9.70
2007,05,06,13,47,8.00
2007,05,06,13,48,6.70
2007,05,06,13,49,9.10
2007,05,06,13,50,9.90
2007,05,06,13,51,10.10
2007,05,06,13,52,10.10
2007,05,06,13,53,10.80
2007,05,06,13,54,14.40
2007,05,06,13,55,10.20
2007,05,06,13,56,11.50
2007,05,06,13,57,7.50
2007,05,06,13,58,10.40
2007,05,06,13,59,10.50
2007,05,06,14,00,5.30
2007,05,06,14,01,8.30
2007,05,06,14,02,9.70
2007,05,06,14,03,6.90
2007,05,06,14,04,7.90
2007,05,06,14,05,10.90
2007,05,06,14,06,5.70
2007,05,06,14,07,6.40
2007,05,06,14,08,5.10
2007,05,06,14,09,7.10
2007,05,06,14,10,7.50
2007,05,06,14,11,12.10
2007,05,06,14,12,9.70
2007,05,06,14,13,7.60
2007,05,06,14,14,8.70
2007,05,06,14,15,12.90
2007,05,06,14,16,12.20
2007,05,06,14,17,10.30
2007,05,06,14,18,6.10
2007,05,06,14,19,10.80
2007,05,06,14,20,10.70
2007,05,06,14,21,11.10
2007,05,06,14,22,12.20
2007,05,06,14,23,11.30
2007,05,06,14,24,6.90
2007,05,06,14,25,5.10
2007,05,06,14,26,6.80
2007,05,06,14,27,3.50
2007,05,06,14,28,6.70
2007,05,06,14,29,6.70
2007,05,06,14,30,4.10
2007,05,06,14,31,8.10
2007,05,06,14,32,5.10
2007,05,06,14,33,7.70
2007,05,06,14,34,8.80
2007,05,06,14,35,8.50
2007,05,06,14,36,11.40
2007,05,06,14,37,8.90
2007,05,06,14,38,8.40
2007,05,06,14,39,6.20
2007,05,06,14,40,10.70
2007,05,06,14,41,8.00
2007,05,06,14,42,12.00
2007,05,06,14,43,9.90
2007,05,06,14,44,13.00
2007,05,06,14,45,8.50
2007,05,06,14,46,8.50
2007,05,06,14,47,11.30
2007,05,06,14,48,11.80
2007,05,06,14,49,9.00
2007,05,06,14,50,6.60
2007,05,06,14,51,5.70
2007,05,06,14,52,7.50
2007,05,06,14,53,5.40
2007,05,06,14,54,10.10
2007,05,06,14,55,9.70
2007,05,06,14,56,16.70
2007,05,06,14,57,8.60
2007,05,06,14,58,9.70
2007,05,06,14,59,7.10
2007,05,06,15,00,13.70
2007,05,06,15,01,11.70
2007,05,06,15,02,9.30
2007,05,06,15,03,9.00
2007,05,06,15,04,7.60
2007,05,06,15,05,14.30
2007,05,06,15,06,13.50
2007,05,06,15,07,13.90
2007,05,06,15,08,14.50
2007,05,06,15,09,13.10
2007,05,06,15,10,11.40
2007,05,06,15,11,8.00
2007,05,06,15,12,10.80
2007,05,06,15,13,7.60
2007,05,06,15,14,6.50
2007,05,06,15,15,8.10
2007,05,06,15,16,7.90
2007,05,06,15,17,6.40
2007,05,06,15,18,7.20
2007,05,06,15,19,7.20
2007,05,06,15,20,5.80
2007,05,06,15,21,7.40
2007,05,06,15,22,11.90
2007,05,06,15,23,11.80
2007,05,06,15,24,10.60
2007,05,06,15,25,12.80
2007,05,06,15,26,11.30
2007,05,06,15,27,13.30
2007,05,06,15,28,8.00
2007,05,06,15,29,8.90
2007,05,06,15,30,10.60
2007,05,06,15,31,6.70
2007,05,06,15,32,8.10
2007,05,06,15,33,12.10
2007,05,06,15,34,7.80
2007,05,06,15,35,7.20
2007,05,06,15,36,6.50
2007,05,06,15,37,10.40
2007,05,06,15,38,10.90
2007,05,06,15,39,13.50
2007,05,06,15,40,11.40
2007,05,06,15,41,9.40
2007,05,06,15,42,7.80
2007,05,06,15,43,11.50
2007,05,06,15,44,11.00
2007,05,06,15,45,13.80
2007,05,06,15,46,11.30
2007,05,06,15,47,10.50
2007,05,06,15,48,15.00
2007,05,06,15,49,12.20
2007,05,06,15,50,14.20
2007,05,06,15,51,8.60
2007,05,06,15,52,7.60
2007,05,06,15,53,12.90
2007,05,06,15,54,13.00
2007,05,06,15,55,9.40
2007,05,06,15,56,10.10
2007,05,06,15,57,7.40
2007,05,06,15,58,7.90
2007,05,06,15,59,8.50
2007,05,06,16,00,13.20
2007,05,06,16,01,9.00
2007,05,06,16,02,5.20
2007,05,06,16,03,6.70
2007,05,06,16,04,8.60
2007,05,06,16,05,6.20
2007,05,06,16,06,10.50
2007,05,06,16,07,7.80
2007,05,06,16,08,5.50
2007,05,06,16,09,12.90
2007,05,06,16,10,11.00
2007,05,06,16,11,8.30
2007,05,06,16,12,8.60
2007,05,06,16,13,6.80
2007,05,06,16,14,7.70
2007,05,06,16,15,6.80
2007,05,06,16,16,7.80
2007,05,06,16,17,9.40
2007,05,06,16,18,10.50
2007,05,06,16,19,9.70
2007,05,06,16,20,10.60
2007,05,06,16,21,12.70
2007,05,06,16,22,10.70
2007,05,06,16,23,9.80
2007,05,06,16,24,6.30
2007,05,06,16,25,5.70
2007,05,06,16,26,5.90
2007,05,06,16,27,8.00
2007,05,06,16,28,9.60
2007,05,06,16,29,11.70
2007,05,06,16,30,12.30
2007,05,06,16,31,10.00
2007,05,06,16,32,10.90
2007,05,06,16,33,9.60
2007,05,06,16,34,10.70
2007,05,06,16,35,10.30
2007,05,06,16,36,9.10
2007,05,06,16,37,11.70
2007,05,06,16,38,7.30
2007,05,06,16,39,7.10
2007,05,06,16,40,8.60
2007,05,06,16,41,12.80
2007,05,06,16,42,10.10
2007,05,06,16,43,9.70
2007,05,06,16,44,4.70
2007,05,06,16,45,7.40
2007,05,06,16,46,5.70
2007,05,06,16,47,5.40
2007,05,06,16,48,9.10
2007,05,06,16,49,7.80
2007,05,06,16,50,9.70
2007,05,06,16,51,11.10
2007,05,06,16,52,8.10
2007,05,06,16,53,7.30
2007,05,06,16,54,8.50
2007,05,06,16,55,9.70
2007,05,06,16,56,9.40
2007,05,06,16,57,6.70
2007,05,06,16,58,4.40
2007,05,06,16,59,5.90
2007,05,06,17,00,6.40
2007,05,06,17,01,6.10
2007,05,06,17,02,9.80
2007,05,06,17,03,12.20
2007,05,06,17,04,9.70
2007,05,06,17,05,11.60
2007,05,06,17,06,10.10
2007,05,06,17,07,11.30
2007,05,06,17,08,7.70
2007,05,06,17,09,9.10
2007,05,06,17,10,13.90
2007,05,06,17,11,10.50
2007,05,06,17,12,9.70
2007,05,06,17,13,9.30
2007,05,06,17,14,5.90
2007,05,06,17,15,6.60
2007,05,06,17,16,8.90
2007,05,06,17,17,9.50
2007,05,06,17,18,7.60
2007,05,06,17,19,8.50
2007,05,06,17,20,8.90
2007,05,06,17,21,6.30
2007,05,06,17,22,7.40
2007,05,06,17,23,7.40
2007,05,06,17,24,7.20
2007,05,06,17,25,9.30
2007,05,06,17,26,13.00
2007,05,06,17,27,9.20
2007,05,06,17,28,6.80
2007,05,06,17,29,13.40
2007,05,06,17,30,11.20
2007,05,06,17,31,12.60
2007,05,06,17,32,12.40
2007,05,06,17,33,11.00
2007,05,06,17,34,10.90
2007,05,06,17,35,8.00
2007,05,06,17,36,8.60
2007,05,06,17,37,9.60
2007,05,06,17,38,7.30
2007,05,06,17,39,10.00
2007,05,06,17,40,8.70
2007,05,06,17,41,9.20
2007,05,06,17,42,9.30
2007,05,06,17,43,8.30
2007,05,06,17,44,12.30
2007,05,06,17,45,11.70
2007,05,06,17,46,9.00
2007,05,06,17,47,6.10
2007,05,06,17,48,6.30
2007,05,06,17,49,8.80
2007,05,06,17,50,9.20
2007,05,06,17,51,7.70
2007,05,06,17,52,7.70
2007,05,06,17,53,8.80
2007,05,06,17,54,9.00
2007,05,06,17,55,9.70
2007,05,06,17,56,4.60
2007,05,06,17,57,8.20